Miscellaneous Local Product
Issued by NWS Hastings, NE

Home | Current Version | Previous Version | Graphics & Text | Print | Product List | Glossary On
Versions: 1 2 3 4 5 6 7 8 9 10 11 12 13 14 15 16 17 18 19 20 21 22 23 24 25 26 27 28 29 30 31 32 33 34 35 36 37 38 39 40 41 42 43 44 45 46 47 48 49 50
000
AXUS43 KGID 231202
MISGRI

GID CWA HOURLY WEATHER ROUNDUP
NATIONAL WEATHER SERVICE HASTINGS NE
700 AM CDT WED APR 23 2014

NOTE: "FAIR" INDICATES FEW OR NO CLOUDS BELOW 12,000 FEET WITH NO
SIGNIFICANT WEATHER AND/OR OBSTRUCTIONS TO VISIBILITY.

...SOUTH CENTRAL NEBRASKA...

CITY           SKY/WX    TMP DP  RH WIND       PRES   REMARKS
GRAND ISLAND   CLOUDY    52  40  63 SE24G31   29.74F
HASTINGS       CLOUDY    53  39  59 SE18G28   29.73F
KEARNEY        CLOUDY    54  37  54 S23G36    29.71S
ORD            CLOUDY    50  37  61 SE14G21   29.68F
YORK           CLOUDY    50  41  71 SE21G29   29.81F
AURORA         CLOUDY    52  40  63 SE20G28   29.78F
LEXINGTON      CLOUDY    54  37  51 SE22G29   29.66S
HOLDREGE       CLOUDY    54  35  48 SE26G32   29.69S
HEBRON         CLOUDY    52  42  69 SE14      29.84S

...NEBRASKA PANHANDLE...

CITY           SKY/WX    TMP DP  RH WIND       PRES   REMARKS
CHADRON        CLOUDY    55  46  71 SW5       29.49R
ALLIANCE       CLOUDY    52  45  77 SE10      29.49F
SCOTTSBLUFF    CLOUDY    53  44  71 CALM      29.53R
SIDNEY         CLOUDY    49  42  77 SW3       29.53F

...WESTERN AND NORTH CENTRAL NEBRASKA...

CITY           SKY/WX    TMP DP  RH WIND       PRES   REMARKS
VALENTINE      CLOUDY    54  33  45 SE16      29.55F
AINSWORTH      CLOUDY    54  34  47 S23G31    29.56F
ONEILL         PTCLDY    54  32  42 SE23G31   29.69S
BROKEN BOW     MOCLDY    54  35  48 SE18G33   29.66F
IMPERIAL       CLOUDY    58  43  57 S12       29.54F
NORTH PLATTE   MOCLDY    56  40  55 SE16      29.58F
MCCOOK         CLOUDY    55  44  66 SE13      29.61F

...EASTERN NEBRASKA...

CITY           SKY/WX    TMP DP  RH WIND       PRES   REMARKS
NORFOLK        CLOUDY    52  37  56 SE22G32   29.78S
SO SIOUX CITY  CLOUDY    50  37  61 SE21G29   29.88F
TEKAMAH        CLOUDY    53  35  50 SE20      29.92S
COLUMBUS       CLOUDY    48  36  61 SE17G31   29.83F
ALBION         RAIN      52  37  57 SE20G28   29.77F
OMAHA EPPLEY   CLOUDY    54  33  45 SE16      29.95R
MILLARD        CLOUDY    54  35  48 SE9       29.93R
LINCOLN        CLOUDY    57  34  41 SE15G22   29.91R
NEBRASKA CITY  CLOUDY    55  35  47 SE15      29.94S
BEATRICE       CLOUDY    55  37  50 SE16      29.91R
FALLS CITY     MOCLDY    53  37  54 SE12      29.96R

...NORTHERN KANSAS...

CITY           SKY/WX    TMP DP  RH WIND       PRES   REMARKS
GOODLAND       CLOUDY    61  41  47 S23G29    29.61S
HILL CITY      MOCLDY    56  41  57 SE15G23   29.69F
PHILLIPSBURG   CLEAR     55  36  47 SE17G23   29.72F
SMITH CENTER   CLEAR     54  36  50 SE22G28   29.77S
BELOIT         CLEAR     57  36  44 SE17G25   29.80S
HAYS           PTCLDY    55  37  50 S20       29.74F
RUSSELL        MOCLDY    57  36  45 SE18G30   29.75S
CONCORDIA      LGT RAIN  53  42  66 SE17      29.84S
SALINA         MOCLDY    58  37  45 SE18      29.84S
TOPEKA         CLOUDY    58  36  43 SE8       29.98R



USA.gov is the U.S. government's official web portal to all federal, state and local government web resources and services.